| time (UTC) | temp F | wind direction | speed knots | gust knots | rain 1hr in | rain 24hr in | rain mn in | humidity % | barometer mb |
| 20260504050340 | 62 | 239 | 0.9 | 2.6 | 0.00 | 0.00 | 0.00 | 67 | 1012.6 |
| 20260504045838 | 62 | 213 | 0.9 | 2.6 | 0.00 | 0.00 | 0.00 | 66 | 1012.7 |
| 20260504045338 | 62 | 145 | 1.7 | 1.7 | 0.00 | 0.00 | 0.00 | 66 | 1012.7 |
| 20260504044835 | 62 | 241 | 1.7 | 4.3 | 0.00 | 0.00 | 0.00 | 66 | 1012.8 |
| 20260504044332 | 62 | 152 | 0.0 | 4.3 | 0.00 | 0.00 | 0.00 | 66 | 1012.9 |
| 20260504043830 | 63 | 266 | 0.9 | 3.5 | 0.00 | 0.00 | 0.00 | 66 | 1012.7 |
| 20260504043326 | 62 | 232 | 0.9 | 1.7 | 0.00 | 0.00 | 0.00 | 67 | 1012.8 |
| 20260504042824 | 63 | 237 | 3.5 | 4.3 | 0.00 | 0.00 | 0.00 | 64 | 1012.7 |
| 20260504042320 | 62 | 228 | 1.7 | 3.5 | 0.00 | 0.00 | 0.00 | 65 | 1013.0 |
| 20260504041816 | 63 | 55 | 0.9 | 4.3 | 0.00 | 0.00 | 0.00 | 64 | 1013.0 |
| 20260504041312 | 63 | 199 | 2.6 | 4.3 | 0.00 | 0.00 | 0.00 | 64 | 1013.1 |
| 20260504040809 | 63 | 103 | 2.6 | 4.3 | 0.00 | 0.00 | 0.00 | 64 | 1013.0 |
| 20260504040306 | 62 | 97 | 1.7 | 1.7 | 0.00 | 0.00 | 0.00 | 66 | 1013.0 |
| 20260504035802 | 63 | 128 | 1.7 | 3.5 | 0.00 | 0.00 | 0.00 | 64 | 1012.9 |
| 20260504035259 | 63 | 217 | 1.7 | 6.1 | 0.00 | 0.00 | 0.00 | 64 | 1013.3 |
| 20260504034756 | 63 | 144 | 2.6 | 5.2 | 0.00 | 0.00 | 0.00 | 63 | 1013.3 |
| 20260504034254 | 63 | 125 | 1.7 | 4.3 | 0.00 | 0.00 | 0.00 | 63 | 1013.3 |
| 20260504033751 | 63 | 234 | 1.7 | 1.7 | 0.00 | 0.00 | 0.00 | 63 | 1013.6 |
| 20260504033249 | 63 | 141 | 1.7 | 3.5 | 0.00 | 0.00 | 0.00 | 64 | 1013.6 |
| 20260504032745 | 63 | 230 | 0.0 | 1.7 | 0.00 | 0.00 | 0.00 | 64 | 1013.6 |
| 20260504032242 | 63 | 154 | 0.0 | 3.5 | 0.00 | 0.00 | 0.00 | 65 | 1013.6 |
| 20260504031739 | 63 | 179 | 0.9 | 2.6 | 0.00 | 0.00 | 0.00 | 65 | 1013.7 |
| 20260504031237 | 63 | 169 | 1.7 | 1.7 | 0.00 | 0.00 | 0.00 | 63 | 1013.8 |
| 20260504030732 | 63 | 142 | 0.0 | 1.7 | 0.00 | 0.00 | 0.00 | 64 | 1013.6 |
| 20260504030230 | 63 | 157 | 1.7 | 2.6 | 0.00 | 0.00 | 0.00 | 62 | 1013.7 |
| 20260504025726 | 64 | 107 | 1.7 | 2.6 | 0.00 | 0.00 | 0.00 | 62 | 1013.8 |
| 20260504025223 | 64 | 117 | 2.6 | 2.6 | 0.00 | 0.00 | 0.00 | 62 | 1013.8 |
| 20260504024720 | 64 | 88 | 0.0 | 1.7 | 0.00 | 0.00 | 0.00 | 61 | 1013.7 |
| 20260504024217 | 64 | 180 | 1.7 | 2.6 | 0.00 | 0.00 | 0.00 | 62 | 1013.7 |
| 20260504023714 | 64 | 119 | 0.0 | 3.5 | 0.00 | 0.00 | 0.00 | 60 | 1013.5 |
| 20260504023209 | 64 | 154 | 1.7 | 1.7 | 0.00 | 0.00 | 0.00 | 61 | 1013.5 |
| 20260504022706 | 65 | 163 | 0.9 | 3.5 | 0.00 | 0.00 | 0.00 | 59 | 1013.3 |
| 20260504022202 | 65 | 147 | 0.9 | 2.6 | 0.00 | 0.00 | 0.00 | 60 | 1013.3 |
| 20260504021700 | 65 | 150 | 2.6 | 3.5 | 0.00 | 0.00 | 0.00 | 59 | 1013.2 |
| 20260504021156 | 65 | 80 | 0.9 | 1.7 | 0.00 | 0.00 | 0.00 | 60 | 1013.3 |
| 20260504020653 | 65 | 199 | 1.7 | 4.3 | 0.00 | 0.00 | 0.00 | 58 | 1013.1 |
| 20260504020149 | 65 | 181 | 0.9 | 3.5 | 0.00 | 0.00 | 0.00 | 59 | 1013.1 |
| 20260504015646 | 65 | 34 | 0.0 | 1.7 | 0.00 | 0.00 | 0.00 | 58 | 1013.1 |
| 20260504015142 | 66 | 205 | 0.0 | 2.6 | 0.00 | 0.00 | 0.00 | 60 | 1013.3 |
| 20260504014638 | 66 | 105 | 0.0 | 2.6 | 0.00 | 0.00 | 0.00 | 58 | 1013.2 |
| 20260504014136 | 66 | 209 | 1.7 | 2.6 | 0.00 | 0.00 | 0.00 | 57 | 1013.2 |
| 20260504013633 | 66 | 173 | 0.9 | 2.6 | 0.00 | 0.00 | 0.00 | 57 | 1013.2 |
| 20260504013130 | 66 | 195 | 0.0 | 1.7 | 0.00 | 0.00 | 0.00 | 57 | 1013.0 |
| 20260504012627 | 67 | 217 | 0.0 | 3.5 | 0.00 | 0.00 | 0.00 | 56 | 1013.0 |
| 20260504012125 | 67 | 145 | 1.7 | 1.7 | 0.00 | 0.00 | 0.00 | 56 | 1013.0 |
| 20260504011621 | 67 | 79 | 1.7 | 1.7 | 0.00 | 0.00 | 0.00 | 56 | 1012.9 |
| 20260504011118 | 67 | 89 | 0.0 | 2.6 | 0.00 | 0.00 | 0.00 | 55 | 1012.7 |
| 20260504010614 | 68 | 149 | 1.7 | 2.6 | 0.00 | 0.00 | 0.00 | 56 | 1012.9 |
| 20260504010110 | 68 | 129 | 0.0 | 1.7 | 0.00 | 0.00 | 0.00 | 54 | 1012.9 |
| 20260504005607 | 68 | 256 | 0.0 | 0.9 | 0.00 | 0.00 | 0.00 | 55 | 1012.8 |
| 20260504005104 | 68 | 141 | 0.0 | 0.9 | 0.00 | 0.00 | 0.00 | 54 | 1012.7 |
| 20260504004602 | 69 | 69 | 0.0 | 1.7 | 0.00 | 0.00 | 0.00 | 54 | 1012.7 |
| 20260504004059 | 69 | 205 | 0.0 | 3.5 | 0.00 | 0.00 | 0.00 | 52 | 1012.8 |
| 20260504003555 | 70 | 236 | 1.7 | 2.6 | 0.00 | 0.00 | 0.00 | 54 | 1012.8 |
| 20260504003052 | 70 | 144 | 2.6 | 2.6 | 0.00 | 0.00 | 0.00 | 50 | 1012.9 |
| 20260504002548 | 71 | 102 | 1.7 | 1.7 | 0.00 | 0.00 | 0.00 | 50 | 1012.8 |
| 20260504002046 | 71 | 249 | 0.0 | 1.7 | 0.00 | 0.00 | 0.00 | 51 | 1012.7 |
| 20260504001544 | 72 | 175 | 1.7 | 4.3 | 0.00 | 0.00 | 0.00 | 48 | 1012.7 |
| 20260504001039 | 73 | 79 | 0.9 | 2.6 | 0.00 | 0.00 | 0.00 | 48 | 1012.7 |
| 20260504000537 | 73 | 202 | 0.9 | 1.7 | 0.00 | 0.00 | 0.00 | 46 | 1012.9 |
| 20260504000034 | 73 | 122 | 1.7 | 3.5 | 0.00 | 0.00 | 0.00 | 45 | 1012.8 |
| 20260503235533 | 74 | 205 | 1.7 | 7.8 | 0.00 | 0.00 | 0.00 | 44 | 1012.9 |
| 20260503235029 | 74 | 225 | 0.9 | 6.1 | 0.00 | 0.00 | 0.00 | 44 | 1012.9 |
| 20260503234527 | 74 | 88 | 0.0 | 10.4 | 0.00 | 0.00 | 0.00 | 43 | 1012.8 |
| 20260503234025 | 74 | 266 | 3.5 | 6.1 | 0.00 | 0.00 | 0.00 | 42 | 1012.8 |
| 20260503233521 | 74 | 243 | 3.5 | 7.8 | 0.00 | 0.00 | 0.00 | 43 | 1013.0 |
| 20260503233017 | 75 | 251 | 5.2 | 7.8 | 0.00 | 0.00 | 0.00 | 43 | 1012.9 |
| 20260503232514 | 75 | 258 | 3.5 | 9.6 | 0.00 | 0.00 | 0.00 | 42 | 1012.9 |
| 20260503232012 | 75 | 266 | 1.7 | 7.0 | 0.00 | 0.00 | 0.00 | 43 | 1012.9 |
| 20260503231509 | 75 | 134 | 2.6 | 7.0 | 0.00 | 0.00 | 0.00 | 43 | 1013.0 |
| 20260503231006 | 75 | 255 | 13.0 | 13.0 | 0.00 | 0.00 | 0.00 | 41 | 1013.0 |
| 20260503230503 | 75 | 249 | 12.2 | 13.0 | 0.00 | 0.00 | 0.00 | 42 | 1013.1 |
| 20260503230000 | 75 | 261 | 3.5 | 8.7 | 0.00 | 0.00 | 0.00 | 41 | 1013.2 |
| 20260503225456 | 76 | 240 | 12.2 | 15.6 | 0.00 | 0.00 | 0.00 | 39 | 1013.2 |
| 20260503224952 | 76 | 256 | 2.6 | 10.4 | 0.00 | 0.00 | 0.00 | 40 | 1013.3 |
| 20260503224449 | 76 | 226 | 5.2 | 9.6 | 0.00 | 0.00 | 0.00 | 40 | 1013.2 |
| 20260503223947 | 76 | 233 | 2.6 | 15.6 | 0.00 | 0.00 | 0.00 | 40 | 1013.2 |
| 20260503223445 | 77 | 248 | 8.7 | 10.4 | 0.00 | 0.00 | 0.00 | 40 | 1013.3 |
| 20260503222940 | 76 | 183 | 5.2 | 9.6 | 0.00 | 0.00 | 0.00 | 39 | 1013.5 |
| 20260503222439 | 77 | 249 | 16.5 | 17.4 | 0.00 | 0.00 | 0.00 | 38 | 1013.6 |
| 20260503221937 | 77 | 230 | 4.3 | 8.7 | 0.00 | 0.00 | 0.00 | 39 | 1013.6 |
| 20260503221434 | 76 | 255 | 9.6 | 12.2 | 0.00 | 0.00 | 0.00 | 39 | 1013.3 |
| 20260503220931 | 76 | 225 | 7.0 | 13.9 | 0.00 | 0.00 | 0.00 | 39 | 1013.6 |
| 20260503220427 | 77 | 238 | 3.5 | 6.1 | 0.00 | 0.00 | 0.00 | 39 | 1013.6 |
| 20260503215925 | 76 | 244 | 8.7 | 16.5 | 0.00 | 0.00 | 0.00 | 39 | 1013.7 |
| 20260503215421 | 76 | 266 | 5.2 | 13.9 | 0.00 | 0.00 | 0.00 | 38 | 1013.8 |
| 20260503214919 | 76 | 225 | 6.1 | 12.2 | 0.00 | 0.00 | 0.00 | 38 | 1013.8 |
| 20260503214416 | 76 | 257 | 7.8 | 13.0 | 0.00 | 0.00 | 0.00 | 38 | 1013.8 |
| 20260503213914 | 76 | 253 | 5.2 | 12.2 | 0.00 | 0.00 | 0.00 | 39 | 1014.1 |
| 20260503213412 | 77 | 242 | 8.7 | 8.7 | 0.00 | 0.00 | 0.00 | 39 | 1014.0 |
| 20260503212908 | 77 | 246 | 8.7 | 11.3 | 0.00 | 0.00 | 0.00 | 39 | 1014.1 |
| 20260503212406 | 76 | 241 | 5.2 | 7.8 | 0.00 | 0.00 | 0.00 | 39 | 1014.2 |
| 20260503211903 | 76 | 269 | 8.7 | 14.8 | 0.00 | 0.00 | 0.00 | 38 | 1014.4 |
| 20260503211359 | 76 | 244 | 11.3 | 12.2 | 0.00 | 0.00 | 0.00 | 37 | 1014.4 |
| 20260503210854 | 75 | 251 | 11.3 | 17.4 | 0.00 | 0.00 | 0.00 | 38 | 1014.6 |
| 20260503210352 | 76 | 239 | 7.8 | 9.6 | 0.00 | 0.00 | 0.00 | 37 | 1014.6 |
| 20260503205847 | 75 | 252 | 6.1 | 12.2 | 0.00 | 0.00 | 0.00 | 37 | 1014.7 |
| 20260503205344 | 75 | 253 | 8.7 | 13.0 | 0.00 | 0.00 | 0.00 | 37 | 1014.9 |
| 20260503204840 | 75 | 245 | 13.0 | 14.8 | 0.00 | 0.00 | 0.00 | 37 | 1014.8 |
| 20260503204338 | 75 | 254 | 9.6 | 19.1 | 0.00 | 0.00 | 0.00 | 37 | 1015.2 |
| 20260503203835 | 75 | 217 | 1.7 | 13.9 | 0.00 | 0.00 | 0.00 | 37 | 1015.0 |
| 20260503203332 | 76 | 241 | 7.8 | 12.2 | 0.00 | 0.00 | 0.00 | 35 | 1015.2 |
| 20260503202829 | 75 | 197 | 4.3 | 16.5 | 0.00 | 0.00 | 0.00 | 36 | 1015.3 |
| 20260503202327 | 75 | 259 | 4.3 | 10.4 | 0.00 | 0.00 | 0.00 | 36 | 1015.4 |
| 20260503201825 | 75 | 216 | 2.6 | 8.7 | 0.00 | 0.00 | 0.00 | 36 | 1015.3 |
| 20260503201321 | 76 | 251 | 8.7 | 12.2 | 0.00 | 0.00 | 0.00 | 36 | 1015.3 |
| 20260503200819 | 76 | 218 | 2.6 | 7.8 | 0.00 | 0.00 | 0.00 | 38 | 1015.3 |
| 20260503200315 | 76 | 249 | 6.1 | 8.7 | 0.00 | 0.00 | 0.00 | 36 | 1015.4 |
| 20260503195813 | 75 | 250 | 7.0 | 9.6 | 0.00 | 0.00 | 0.00 | 37 | 1015.6 |
| 20260503195309 | 75 | 244 | 11.3 | 14.8 | 0.00 | 0.00 | 0.00 | 36 | 1015.8 |
| 20260503194806 | 75 | 281 | 4.3 | 5.2 | 0.00 | 0.00 | 0.00 | 36 | 1015.8 |
| 20260503194302 | 74 | 227 | 7.8 | 13.9 | 0.00 | 0.00 | 0.00 | 35 | 1016.1 |
| 20260503193758 | 75 | 246 | 7.8 | 9.6 | 0.00 | 0.00 | 0.00 | 35 | 1015.9 |
| 20260503193254 | 76 | 217 | 4.3 | 9.6 | 0.00 | 0.00 | 0.00 | 35 | 1016.0 |
| 20260503192750 | 74 | 88 | 1.7 | 11.3 | 0.00 | 0.00 | 0.00 | 36 | 1016.0 |
| 20260503192245 | 74 | 259 | 6.1 | 7.8 | 0.00 | 0.00 | 0.00 | 35 | 1016.1 |
| 20260503191743 | 75 | 249 | 7.0 | 8.7 | 0.00 | 0.00 | 0.00 | 36 | 1016.2 |
| 20260503191240 | 74 | 246 | 11.3 | 14.8 | 0.00 | 0.00 | 0.00 | 35 | 1016.5 |
| 20260503190737 | 73 | 125 | 2.6 | 12.2 | 0.00 | 0.00 | 0.00 | 35 | 1016.5 |
| 20260503190233 | 74 | 257 | 6.1 | 17.4 | 0.00 | 0.00 | 0.00 | 37 | 1016.5 |
| 20260503185731 | 73 | 162 | 3.5 | 8.7 | 0.00 | 0.00 | 0.00 | 36 | 1016.4 |
| 20260503185226 | 73 | 251 | 10.4 | 11.3 | 0.00 | 0.00 | 0.00 | 33 | 1016.7 |
| 20260503184721 | 73 | 163 | 4.3 | 7.8 | 0.00 | 0.00 | 0.00 | 36 | 1016.6 |
| 20260503184217 | 73 | 155 | 2.6 | 7.8 | 0.00 | 0.00 | 0.00 | 36 | 1016.9 |
| 20260503183714 | 72 | 161 | 5.2 | 14.8 | 0.00 | 0.00 | 0.00 | 36 | 1017.1 |
| 20260503183211 | 72 | 229 | 9.6 | 15.6 | 0.00 | 0.00 | 0.00 | 34 | 1017.0 |
| 20260503182709 | 71 | 147 | 5.2 | 10.4 | 0.00 | 0.00 | 0.00 | 39 | 1017.4 |
| 20260503182208 | 73 | 235 | 4.3 | 7.8 | 0.00 | 0.00 | 0.00 | 36 | 1017.3 |
| 20260503181703 | 72 | 236 | 5.2 | 10.4 | 0.00 | 0.00 | 0.00 | 36 | 1017.3 |
| 20260503181200 | 71 | 240 | 8.7 | 12.2 | 0.00 | 0.00 | 0.00 | 36 | 1017.6 |
| 20260503180657 | 70 | 253 | 7.8 | 13.0 | 0.00 | 0.00 | 0.00 | 36 | 1017.7 |
| 20260503180156 | 71 | 174 | 3.5 | 11.3 | 0.00 | 0.00 | 0.00 | 37 | 1017.8 |
| 20260503175652 | 72 | 160 | 2.6 | 7.8 | 0.00 | 0.00 | 0.00 | 35 | 1017.9 |
| 20260503175150 | 71 | 247 | 4.3 | 6.1 | 0.00 | 0.00 | 0.00 | 38 | 1018.1 |
| 20260503174646 | 70 | 183 | 2.6 | 13.0 | 0.00 | 0.00 | 0.00 | 37 | 1018.3 |
| 20260503174143 | 70 | 177 | 2.6 | 9.6 | 0.00 | 0.00 | 0.00 | 36 | 1018.3 |
| 20260503173638 | 69 | 250 | 2.6 | 10.4 | 0.00 | 0.00 | 0.00 | 36 | 1018.6 |
| 20260503173135 | 69 | 256 | 5.2 | 13.0 | 0.00 | 0.00 | 0.00 | 37 | 1018.6 |
| 20260503172632 | 70 | 230 | 5.2 | 8.7 | 0.00 | 0.00 | 0.00 | 40 | 1018.7 |
| 20260503172129 | 69 | 267 | 3.5 | 7.8 | 0.00 | 0.00 | 0.00 | 37 | 1018.8 |
| 20260503171625 | 69 | 248 | 8.7 | 10.4 | 0.00 | 0.00 | 0.00 | 37 | 1019.0 |
| 20260503171123 | 68 | 254 | 1.7 | 7.8 | 0.00 | 0.00 | 0.00 | 39 | 1019.3 |
| 20260503170620 | 68 | 225 | 5.2 | 9.6 | 0.00 | 0.00 | 0.00 | 38 | 1019.1 |
| 20260503170116 | 68 | 260 | 4.3 | 10.4 | 0.00 | 0.00 | 0.00 | 40 | 1019.1 |
| 20260503151012 | 60 | 248 | 9.6 | 15.6 | 0.00 | 0.00 | 0.00 | 51 | 1020.5 |
| 20260503150508 | 61 | 147 | 2.6 | 7.0 | 0.00 | 0.00 | 0.00 | 52 | 1020.5 |
| 20260503131401 | 50 | 176 | 2.6 | 4.3 | 0.00 | 0.00 | 0.00 | 73 | 1021.0 |
| 20260503130858 | 49 | 151 | 3.5 | 6.1 | 0.00 | 0.00 | 0.00 | 76 | 1020.9 |
| 20260503130356 | 48 | 238 | 0.0 | 3.5 | 0.00 | 0.00 | 0.00 | 80 | 1020.9 |
| 20260503110755 | 35 | 72 | 0.9 | 1.7 | 0.00 | 0.00 | 0.00 | 98 | 1020.4 |
| 20260503110252 | 35 | 175 | 0.0 | 1.7 | 0.00 | 0.00 | 0.00 | 98 | 1020.2 |
| 20260503100219 | 34 | 134 | 0.9 | 1.7 | 0.00 | 0.00 | 0.00 | 98 | 1020.6 |
| 20260503090148 | 35 | 56 | 0.0 | 1.7 | 0.00 | 0.00 | 0.00 | 98 | 1021.0 |
| 20260503081623 | 36 | 134 | 3.5 | 3.5 | 0.00 | 0.00 | 0.00 | 97 | 1021.0 |
| 20260503081121 | 35 | 126 | 0.9 | 1.7 | 0.00 | 0.00 | 0.00 | 97 | 1020.8 |
| 20260503080616 | 36 | 149 | 0.0 | 1.7 | 0.00 | 0.00 | 0.00 | 97 | 1020.9 |
| 20260503080113 | 35 | 101 | 0.0 | 0.9 | 0.00 | 0.00 | 0.00 | 97 | 1021.0 |
| 20260503072550 | 36 | 119 | 0.0 | 1.7 | 0.00 | 0.00 | 0.00 | 96 | 1021.2 |